Date,TemperatureHighF,TemperatureAvgF,TemperatureLowF,DewpointHighF,DewpointAvgF,DewpointLowF,HumidityHigh,HumidityAvg,HumidityLow,PressureMaxIn,PressureMinIn,WindSpeedMaxMPH,WindSpeedAvgMPH,GustSpeedMaxMPH,PrecipitationSumIn
2013-1-1,37,30,26,34,29,25,100,93,85,30.45,30.31,3,2,7,0.00
2013-1-2,42,32,27,33,28,26,96,85,69,30.31,30.15,5,2,6,0.00
2013-1-3,42,32,24,33,27,22,95,83,59,30.15,30.04,7,2,9,0.00
2013-1-4,40,39,37,40,38,36,100,98,92,30.24,30.12,2,1,3,0.00
2013-1-5,42,40,38,40,38,37,100,92,82,30.12,30.00,6,2,13,0.00
2013-1-6,43,41,38,41,39,37,96,94,88,30.06,29.91,8,5,13,0.00
2013-1-7,49,41,37,47,40,37,100,96,92,30.04,29.73,6,3,13,0.00
2013-1-8,48,40,38,48,40,37,100,97,92,30.06,29.55,9,3,17,0.00
2013-1-9,48,44,38,48,38,33,100,81,70,29.80,29.57,7,4,17,0.00
2013-1-10,40,36,31,35,32,27,100,87,75,30.08,29.91,9,4,12,0.00
2013-1-11,39,31,27,27,23,20,84,72,46,30.26,30.08,9,4,13,0.00
2013-1-12,37,27,21,23,20,18,91,77,54,30.38,30.26,6,1,9,0.00
2013-1-13,33,27,20,25,21,18,91,79,66,30.43,30.38,3,1,6,0.00
2013-1-14,33,32,31,32,29,22,96,88,68,30.51,30.40,3,1,6,0.00
2013-1-15,39,34,31,33,31,29,96,89,72,30.65,30.51,2,1,5,0.00
2013-1-16,39,33,28,33,30,26,96,86,69,30.63,30.47,5,1,7,0.00
2013-1-17,43,31,25,34,28,23,96,88,64,30.47,30.23,1,0,3,0.00
2013-1-18,40,32,26,36,30,25,100,96,85,30.29,30.21,6,2,6,0.00
2013-1-19,37,32,28,37,32,28,100,98,95,30.34,30.29,3,1,5,0.00
2013-1-20,36,32,27,36,31,26,100,99,95,30.34,30.23,3,1,5,0.00
2013-1-21,34,32,27,34,31,27,100,99,95,30.24,30.07,3,2,6,0.00
2013-1-22,38,32,25,35,30,24,100,93,82,30.09,29.86,3,1,7,0.00
2013-1-23,43,39,35,42,37,31,100,93,78,29.99,29.74,9,3,17,0.00
2013-1-24,44,40,36,40,38,35,100,93,76,30.11,29.95,5,3,9,0.00
2013-1-25,48,42,37,42,40,37,100,92,79,29.98,29.83,7,2,9,0.00
2013-1-26,41,39,37,38,37,35,100,91,79,29.93,29.79,7,3,13,0.00
2013-1-27,41,39,37,40,38,37,100,98,92,29.95,29.88,9,3,13,0.00
2013-1-28,42,40,38,40,37,35,100,90,76,29.96,29.89,6,2,12,0.00
2013-1-29,44,41,39,39,38,37,96,89,82,30.19,29.96,2,1,7,0.00
2013-1-31,48,46,44,46,45,44,100,95,92,30.26,30.21,10,5,17,0.00
2013-2-1,49,44,38,45,43,38,100,94,79,30.36,30.25,5,1,7,0.00
2013-2-2,41,37,32,40,37,31,100,98,96,30.35,30.17,3,1,6,0.00
2013-2-3,44,41,39,43,40,38,100,96,92,30.23,30.11,7,3,12,0.00
2013-2-4,49,44,41,43,42,40,100,91,73,30.11,29.79,9,4,18,0.00
2013-2-5,48,46,42,42,41,40,92,82,73,29.79,29.69,14,8,25,0.00
2013-2-6,48,44,42,42,40,38,92,84,68,29.93,29.71,12,7,21,0.00
2013-2-7,48,43,31,39,36,31,100,79,58,30.12,29.69,14,6,30,0.00
2013-2-8,44,36,29,38,34,28,100,90,76,30.24,30.12,1,0,3,0.00
2013-2-9,44,39,34,39,37,33,100,92,82,30.28,30.19,2,1,3,0.00
2013-2-10,47,36,29,37,32,28,100,86,62,30.32,30.26,2,1,6,0.00
2013-2-11,43,41,38,41,39,37,100,95,89,30.27,30.25,6,3,12,0.00
2013-2-12,48,45,42,44,42,40,96,89,79,30.30,30.14,10,5,20,0.00
2013-2-13,50,45,38,43,39,36,96,80,65,30.40,30.16,6,2,15,0.00
2013-2-14,45,43,41,43,41,38,100,94,85,30.51,30.40,3,2,7,0.00
2013-2-15,51,44,40,43,41,38,96,88,71,30.52,30.12,3,1,6,0.00
2013-2-16,53,45,40,45,40,38,96,83,58,30.12,30.00,7,2,13,0.00
2013-2-17,47,41,35,38,35,33,96,81,65,30.16,30.06,5,2,9,0.00
2013-2-18,44,40,37,37,35,33,92,84,70,30.06,29.71,8,2,15,0.00
2013-2-19,48,41,31,38,34,30,96,75,60,29.91,29.70,6,2,10,0.00
2013-2-20,40,36,30,38,34,29,96,90,75,29.96,29.91,8,3,14,0.00
2013-2-21,44,40,35,40,38,34,100,91,79,29.95,29.89,9,6,17,0.00
2013-2-22,46,42,38,41,38,33,100,85,67,29.93,29.52,20,9,28,0.00
2013-2-23,50,43,37,39,36,31,88,75,55,30.25,29.73,6,2,12,0.00
2013-2-24,46,43,39,38,36,35,96,77,65,30.26,29.79,18,9,28,0.00
2013-2-25,46,44,38,41,37,33,92,77,65,30.17,29.73,16,7,32,0.00
2013-2-26,46,41,35,36,34,32,92,78,57,30.25,30.09,12,6,21,0.00
2013-2-27,47,41,37,40,38,35,96,86,70,30.24,30.09,10,4,20,0.00
2013-2-28,43,40,37,43,38,35,100,93,82,30.21,30.13,9,3,15,0.00
2013-3-1,54,51,43,50,48,43,100,92,83,30.19,30.14,14,8,24,0.00
2013-3-2,52,48,41,49,45,36,100,91,79,30.17,29.93,9,4,17,0.00
2013-3-3,50,42,32,37,35,31,100,78,58,30.24,30.07,5,3,13,0.00
2013-3-4,51,41,30,37,30,24,100,70,35,30.25,29.91,14,4,17,0.00
2013-3-5,48,45,41,39,30,24,89,57,41,29.91,29.72,15,8,22,0.00
2013-3-6,46,42,39,41,39,37,100,89,79,29.80,29.56,6,2,9,0.00
2013-3-7,45,41,39,43,40,38,100,94,89,30.04,29.80,6,3,9,0.00
2013-3-8,50,42,33,42,38,33,100,88,70,30.16,30.03,3,1,9,0.00
2013-3-9,53,40,29,43,36,29,100,85,63,30.41,30.16,7,1,10,0.00
2013-3-10,46,42,36,41,39,36,100,88,76,30.41,30.35,3,2,7,0.00
2013-3-11,49,43,36,41,39,36,100,86,68,30.36,30.08,7,1,12,0.00
2013-3-12,51,47,41,49,46,40,96,94,92,30.08,29.88,15,7,22,0.00
2013-3-13,52,51,50,50,49,47,100,93,86,30.09,29.95,14,8,22,0.00
2013-3-14,54,50,47,50,48,45,100,93,74,30.04,29.93,9,3,16,0.00
2013-3-15,55,50,47,50,47,45,100,88,74,30.12,30.04,10,4,16,0.00
2013-3-16,52,45,40,47,41,34,100,88,60,30.04,29.75,6,3,14,0.00
2013-3-17,49,44,41,37,33,29,85,66,47,30.07,29.82,6,4,14,0.00
2013-3-18,51,44,35,38,34,24,92,69,38,30.16,29.97,9,4,20,0.00
2013-3-19,50,42,33,40,32,28,92,70,43,30.17,29.53,10,5,16,0.00
2013-3-20,54,46,39,47,42,30,96,84,62,29.83,29.23,14,6,31,0.00
2013-3-21,49,42,37,37,32,28,88,67,43,30.10,29.83,6,3,14,0.00
2013-3-22,48,41,32,35,31,28,85,68,49,30.30,30.10,5,2,13,0.00
2013-3-23,50,38,30,33,28,23,92,69,38,30.33,30.25,7,2,10,0.00
2013-3-24,56,43,33,37,30,27,81,62,35,30.25,30.07,6,2,10,0.00
2013-3-25,57,46,36,39,34,30,81,62,38,30.08,29.89,6,2,9,0.00
2013-3-26,57,45,33,42,36,30,92,72,47,29.96,29.91,2,1,7,0.00
2013-3-27,56,46,36,45,39,34,96,79,56,29.93,29.89,3,1,9,0.00
2013-3-28,60,49,40,46,41,37,92,74,54,30.07,29.93,6,1,7,0.00
2013-3-29,58,49,40,47,43,38,96,82,66,30.19,30.07,2,1,6,0.00
2013-3-30,62,49,36,48,39,-100,100,80,59,30.22,30.04,5,1,7,0.00
2013-3-31,64,50,39,48,42,37,96,76,48,30.04,29.85,3,1,5,0.00
2013-4-1,59,50,39,48,44,38,96,81,61,30.05,29.87,8,3,15,0.00
2013-4-2,59,52,47,46,44,42,92,76,59,30.12,30.05,6,2,9,0.00
2013-4-3,60,51,44,48,45,42,92,79,62,30.12,29.91,3,1,7,0.00
2013-4-4,54,51,48,52,47,43,96,84,71,29.91,29.52,10,2,20,0.00
2013-4-5,58,52,47,51,48,44,96,86,69,29.76,29.57,14,6,22,0.00
2013-4-6,58,50,43,46,42,36,96,75,48,29.81,29.57,14,6,28,0.00
2013-4-7,51,45,42,45,42,40,96,87,76,29.77,29.50,7,3,13,0.00
2013-4-8,56,48,42,46,42,40,92,81,59,30.17,29.77,6,3,10,0.00
2013-4-9,53,48,46,46,44,42,96,84,68,30.27,30.09,9,4,13,0.00
2013-4-10,56,50,46,50,46,42,96,84,63,30.11,29.79,14,6,29,0.00
2013-4-11,56,49,38,43,37,33,89,66,43,30.22,30.11,6,2,9,0.00
2013-4-12,44,42,38,41,38,35,96,87,76,30.12,29.56,10,4,17,0.00
2013-4-13,50,42,38,42,36,31,96,80,63,29.83,29.56,12,5,17,0.00
2013-4-15,56,51,43,43,39,34,82,64,48,30.10,29.99,10,3,20,0.00
2013-4-16,58,49,38,42,36,30,92,62,38,30.31,30.10,8,2,12,0.00
2013-4-17,58,48,37,41,36,31,82,64,43,30.36,30.31,8,3,17,0.00
2013-4-18,49,46,44,47,44,41,100,92,76,30.36,30.12,7,4,13,0.00
2013-4-19,55,50,48,51,48,46,96,92,77,30.12,29.99,9,4,15,0.00
2013-4-20,58,52,48,49,45,43,96,79,59,30.16,30.06,6,3,13,0.00
2013-4-21,53,47,42,44,39,31,92,75,42,30.32,30.14,9,4,18,0.00
2013-4-22,59,47,34,40,34,30,92,64,34,30.50,30.32,7,2,12,0.00
2013-4-23,59,48,37,45,38,33,92,70,50,30.37,30.21,5,2,7,0.00
2013-4-24,62,52,37,44,39,35,92,63,39,30.27,30.00,3,1,7,0.00
2013-4-25,64,52,39,48,43,37,96,71,51,30.05,29.98,6,2,9,0.00
2013-4-26,58,53,45,49,44,40,89,74,52,30.19,30.05,6,3,13,0.00
2013-4-27,53,51,49,50,46,42,92,82,73,30.11,30.04,9,4,15,0.00
2013-4-28,56,49,37,45,40,36,96,73,52,30.11,29.84,10,4,17,0.00
2013-4-29,56,50,44,44,38,33,92,64,41,30.04,29.81,9,5,20,0.00
2013-4-30,56,48,38,40,35,30,85,60,41,30.36,30.04,6,3,17,0.00
2013-5-1,60,48,34,41,36,29,88,65,32,30.54,30.36,6,2,10,0.00
2013-5-2,62,52,40,45,41,36,85,68,49,30.50,30.33,3,1,7,0.00
2013-5-3,65,53,40,50,45,38,96,76,56,30.35,30.19,3,1,9,0.00
2013-5-4,72,59,44,53,47,43,96,67,36,30.21,29.96,5,2,10,0.00
2013-5-5,75,62,47,53,49,44,89,63,42,29.96,29.71,3,1,7,0.00
2013-5-6,77,64,50,53,49,45,89,62,35,29.80,29.70,3,1,7,0.00
2013-5-7,67,59,50,53,50,47,89,74,58,29.89,29.72,6,3,13,0.00
2013-5-8,65,56,49,53,50,47,96,81,64,30.07,29.89,6,3,12,0.00
2013-5-9,66,57,47,54,50,46,96,78,58,30.15,30.05,5,2,9,0.00
2013-5-10,69,56,48,55,44,-100,92,76,56,30.14,30.05,5,2,7,0.00
2013-5-11,71,59,52,57,48,-100,96,75,52,30.09,29.93,5,2,9,0.00
2013-5-12,64,59,55,59,57,55,100,93,75,30.00,29.93,7,3,15,0.00
2013-5-13,63,55,50,56,52,44,100,87,69,30.08,29.83,10,5,28,0.00
2013-5-14,63,55,49,46,43,39,86,65,41,30.15,30.06,6,3,15,0.00
2013-5-15,67,56,49,50,47,44,92,72,49,30.06,29.93,3,1,9,0.00
2013-5-16,65,55,50,54,44,-100,96,82,62,29.97,29.82,3,2,7,0.00
2013-5-17,58,54,48,53,51,48,100,90,77,29.97,29.85,9,3,14,0.00
2013-5-18,63,55,48,51,50,47,96,84,57,30.19,29.97,5,2,7,0.00
2013-5-19,64,56,48,52,49,46,96,77,53,30.33,30.19,3,1,12,0.00
2013-5-20,66,56,46,51,48,45,96,77,56,30.28,29.85,5,2,15,0.00
2013-5-21,54,50,48,49,47,46,96,89,77,29.85,29.73,3,2,9,0.00
2013-5-22,60,52,45,49,45,43,96,80,53,29.88,29.77,7,3,13,0.00
2013-5-23,60,52,43,49,46,42,96,81,57,29.93,29.86,6,3,13,0.00
2013-5-24,64,53,41,48,45,41,100,74,49,29.96,29.91,7,2,12,0.00
2013-5-25,65,55,47,49,47,44,92,76,54,29.97,29.93,6,2,13,0.00
2013-5-26,58,54,50,53,51,48,96,88,77,29.93,29.88,6,2,9,0.00
2013-5-27,61,56,51,55,52,49,96,86,67,29.88,29.65,6,2,10,0.00
2013-5-28,58,55,52,54,52,49,96,87,71,29.80,29.68,9,4,15,0.00
2013-5-29,57,54,51,53,51,48,100,91,77,29.86,29.61,5,2,10,0.00
2013-5-30,64,54,47,51,48,46,100,82,60,30.15,29.86,6,3,10,0.00
2013-5-31,65,56,49,51,48,42,96,76,48,30.29,30.15,5,2,7,0.00
2013-6-1,68,57,48,53,50,46,92,76,52,30.19,30.02,3,1,7,0.00
2013-6-2,67,59,52,53,51,47,89,75,54,30.02,29.98,5,2,12,0.00
2013-6-3,68,58,48,55,51,46,96,77,54,30.05,29.99,3,2,9,0.00
2013-6-4,73,61,47,56,52,46,96,74,44,30.08,29.97,2,1,5,0.00
2013-6-5,71,62,54,58,54,49,93,75,52,30.04,29.96,5,2,7,0.00
2013-6-6,74,64,50,59,54,47,96,70,53,29.99,29.91,3,2,7,0.00
2013-6-7,66,58,53,53,49,44,96,71,59,30.06,29.91,6,4,13,0.00
2013-6-8,65,57,50,51,48,46,89,74,53,30.10,30.04,7,4,12,0.00
2013-6-9,68,58,50,53,49,45,92,75,46,30.04,29.97,6,2,10,0.00
2013-6-10,69,57,44,53,47,43,96,72,47,29.97,29.81,3,2,9,0.00
2013-6-11,67,58,53,48,47,46,83,68,46,30.02,29.83,7,4,15,0.00
2013-6-12,64,57,50,52,49,47,96,77,57,30.08,30.02,7,2,10,0.00
2013-6-13,69,57,47,54,49,46,96,76,48,30.11,30.06,3,2,12,0.00
2013-6-14,64,57,52,52,50,49,92,80,62,30.16,30.03,9,3,13,0.00
2013-6-15,73,63,49,58,53,47,96,73,57,30.02,29.86,3,2,9,0.00
2013-6-16,73,64,53,56,54,51,96,71,51,30.00,29.91,10,3,17,0.00
2013-6-17,73,64,53,55,53,49,86,67,51,30.00,29.83,7,3,13,0.00
2013-6-18,73,62,55,56,53,47,96,73,43,29.89,29.83,6,2,10,0.00
2013-6-19,68,60,53,54,52,50,92,78,54,29.89,29.82,6,3,10,0.00
2013-6-20,56,54,53,54,53,52,100,94,89,29.91,29.83,6,4,9,0.00
2013-6-22,74,66,55,55,54,51,92,65,51,30.03,29.82,3,1,9,0.00
2013-6-23,68,63,56,62,58,53,96,83,67,29.82,29.55,3,1,7,0.00
2013-6-24,66,62,59,61,57,55,100,86,67,29.62,29.49,6,3,13,0.00
2013-6-25,70,63,57,57,55,54,96,77,61,29.75,29.60,6,3,13,0.00
2013-6-26,70,63,58,59,56,52,93,78,65,30.00,29.76,7,2,13,0.00
2013-6-27,69,64,59,61,59,56,96,84,75,30.14,29.99,5,2,10,0.00
2013-6-28,75,68,61,65,61,59,96,80,68,30.15,30.00,5,1,10,0.00
2013-6-29,79,69,60,64,62,59,96,78,60,30.04,29.93,5,1,9,0.00
2013-6-30,85,72,59,67,63,58,96,75,54,29.95,29.79,3,1,7,0.00
2013-7-1,83,73,62,67,62,56,93,70,54,29.91,29.82,8,2,13,0.00
2013-7-2,78,68,58,62,57,52,86,68,53,30.02,29.93,7,4,12,0.00
2013-7-3,77,66,54,58,52,47,92,62,43,30.08,29.97,5,2,7,0.00
2013-7-4,73,63,53,56,53,48,92,70,53,30.03,29.95,6,4,12,0.00
2013-7-5,74,66,51,59,55,50,96,70,51,29.96,29.88,3,2,9,0.00
2013-7-6,77,70,61,60,58,55,80,67,51,29.91,29.79,3,2,9,0.00
2013-7-7,76,66,56,60,56,52,89,71,49,29.87,29.81,3,2,7,0.00
2013-7-8,76,60,55,59,49,-100,92,79,51,30.02,29.87,5,2,9,0.00
2013-7-9,79,67,54,61,58,53,96,73,53,30.05,29.91,3,1,7,0.00
2013-7-10,74,64,55,58,53,46,89,69,48,29.97,29.85,10,4,16,0.00
2013-7-11,71,61,53,51,49,46,86,64,47,30.00,29.87,6,4,14,0.00
2013-7-12,72,61,49,55,50,46,96,68,47,30.01,29.95,3,2,7,0.00
2013-7-13,74,63,49,57,52,46,92,69,49,30.14,30.02,6,2,9,0.00
2013-7-14,78,66,50,58,54,49,96,68,41,30.06,29.95,5,2,9,0.00
2013-7-15,79,67,53,58,52,47,96,60,32,30.01,29.85,7,2,13,0.00
2013-7-16,86,73,58,60,54,49,71,52,38,29.86,29.76,7,2,9,0.00
2013-7-17,74,68,61,59,57,55,80,67,55,30.11,29.78,12,5,17,0.00
2013-7-18,78,67,60,59,57,54,86,70,51,30.16,30.05,5,2,7,0.00
2013-7-19,77,67,56,61,58,54,96,74,55,30.09,29.97,5,2,7,0.00
2013-7-20,73,62,53,60,56,52,96,80,59,30.00,29.89,6,3,13,0.00
2013-7-21,73,63,53,58,56,51,96,78,59,29.91,29.84,5,2,12,0.00
2013-7-22,76,64,54,59,56,53,96,77,51,29.99,29.87,6,2,9,0.00
2013-7-23,78,67,55,60,57,53,96,72,48,30.01,29.91,2,1,6,0.00
2013-7-24,76,65,54,60,56,51,89,72,55,29.99,29.93,5,2,7,0.00
2013-7-25,76,65,52,60,56,51,96,73,53,30.04,29.96,5,2,7,0.00
2013-7-26,76,64,53,59,55,51,96,73,48,30.08,30.01,3,1,6,0.00
2013-7-27,74,66,56,57,54,50,86,66,46,30.07,29.93,3,2,7,0.00
2013-7-28,73,63,52,59,55,50,96,75,57,29.93,29.86,6,3,13,0.00
2013-7-29,74,65,55,57,56,53,92,73,55,29.95,29.87,5,2,9,0.00
2013-7-30,73,64,56,58,56,53,92,75,57,30.06,29.93,5,2,10,0.00
2013-7-31,73,64,55,58,56,53,96,76,59,30.04,29.95,6,2,9,0.00
2013-8-1,69,62,54,62,57,54,100,83,67,29.98,29.95,6,4,14,0.00
2013-8-2,63,59,57,59,56,55,96,89,80,30.07,29.97,6,2,10,0.00
2013-8-3,72,64,58,59,58,56,93,79,59,30.07,30.00,2,1,7,0.00
2013-8-4,77,66,55,64,58,54,100,78,53,30.01,29.88,3,1,7,0.00
2013-8-5,78,65,54,62,58,53,100,79,57,29.96,29.86,2,1,6,0.00
2013-8-6,77,62,51,60,55,50,96,79,55,29.95,29.85,3,1,7,0.00
2013-8-7,78,66,54,59,56,52,92,70,48,29.93,29.86,3,2,9,0.00
2013-8-8,76,66,57,60,58,53,96,74,55,29.96,29.85,9,3,13,0.00
2013-8-9,77,66,53,60,57,52,96,72,53,29.89,29.75,5,2,7,0.00
2013-8-10,75,66,60,60,57,55,86,74,57,29.93,29.79,6,3,13,0.00
2013-8-11,73,64,57,59,56,53,96,76,59,30.00,29.91,7,3,13,0.00
2013-8-12,75,64,57,59,56,54,89,76,55,30.01,29.93,6,2,12,0.00
2013-8-13,75,66,55,57,56,54,96,71,49,30.04,29.88,5,2,7,0.00
2013-8-14,79,65,53,64,58,52,96,81,58,29.88,29.84,5,1,9,0.00
2013-8-15,68,65,62,64,63,61,96,92,81,29.93,29.85,5,1,7,0.00
2013-8-16,78,67,56,64,61,56,100,82,57,29.95,29.89,2,1,5,0.00
2013-8-17,74,64,60,63,53,-100,93,74,61,30.00,29.91,5,2,10,0.00
2013-8-18,73,65,57,58,57,55,93,75,59,30.05,29.99,3,2,7,0.00
2013-8-19,75,62,54,57,54,51,89,76,51,30.06,29.99,3,2,10,0.00
2013-8-20,73,62,53,58,53,49,96,75,47,30.11,30.03,5,2,7,0.00
2013-8-21,78,63,48,58,53,46,96,72,46,30.04,29.88,3,1,7,0.00
2013-8-22,80,66,51,60,56,50,96,73,46,29.89,29.73,2,1,6,0.00
2013-8-23,74,65,59,59,55,53,89,70,53,29.81,29.73,9,5,17,0.00
2013-8-24,74,62,59,60,51,-100,96,75,55,29.84,29.80,5,2,9,0.00
2013-8-25,73,64,51,56,54,50,96,71,51,29.88,29.79,2,1,6,0.00
2013-8-26,75,65,60,58,54,51,80,68,49,29.84,29.77,9,4,17,0.00
2013-8-27,70,64,61,58,57,55,83,75,65,29.87,29.84,6,3,17,0.00
2013-8-28,73,69,62,64,63,61,96,81,68,29.83,29.80,2,1,6,0.00
2013-8-29,71,66,62,66,64,62,100,92,78,29.84,29.80,9,3,21,0.00
2013-8-30,74,66,58,61,58,56,100,77,55,30.09,29.89,6,2,12,0.00
2013-8-31,74,62,54,61,51,-100,96,75,59,30.04,29.78,5,2,9,0.00
2013-9-1,76,65,53,60,56,52,100,76,53,29.81,29.73,3,1,9,0.00
2013-9-2,73,65,58,64,58,55,96,81,59,29.86,29.79,3,1,6,0.00
2013-9-3,69,62,56,62,59,55,100,90,75,29.97,29.87,6,1,9,0.00
2013-9-4,71,62,55,62,59,54,100,89,73,30.00,29.95,3,1,7,0.00
2013-9-5,63,60,56,62,59,55,100,97,93,30.00,29.85,5,1,7,0.00
2013-9-6,68,63,59,62,61,58,100,92,78,30.02,29.84,6,2,10,0.00
2013-9-7,71,62,58,62,54,-100,96,83,73,30.03,29.97,5,2,10,0.00
2013-9-8,70,62,55,63,59,54,100,90,78,30.05,29.96,2,1,6,0.00
2013-9-9,71,62,55,61,58,55,100,88,68,30.01,29.93,3,1,6,0.00
2013-9-10,76,64,52,62,58,51,100,84,61,29.95,29.84,3,1,7,0.00
2013-9-11,83,68,56,64,59,55,100,76,50,29.91,29.82,5,1,7,0.00
2013-9-12,79,65,55,62,58,55,100,80,52,29.93,29.82,5,2,9,0.00
2013-9-13,70,62,57,60,58,56,100,88,70,29.89,29.79,9,4,13,0.00
2013-9-14,69,59,58,60,52,-100,100,87,73,29.83,29.69,3,1,6,0.00
2013-9-15,66,60,57,61,58,56,100,95,83,29.72,29.65,5,2,20,0.00
2013-9-16,68,61,58,60,58,53,100,90,75,29.84,29.71,7,4,15,0.00
2013-9-17,67,58,53,56,53,51,92,83,67,29.84,29.78,5,2,10,0.00
2013-9-18,57,53,51,52,51,49,96,92,80,30.00,29.84,2,2,5,0.00
2013-9-19,71,61,52,55,52,49,92,72,45,29.99,29.69,3,1,10,0.00
2013-9-20,69,58,49,56,52,48,96,79,52,29.69,29.51,3,1,6,0.00
2013-9-21,68,57,54,56,48,-100,100,81,63,29.65,29.57,3,2,9,0.00
2013-9-22,60,57,55,55,53,51,100,87,74,29.59,29.44,14,7,30,0.00
2013-9-23,60,55,48,53,50,46,96,82,64,29.87,29.61,7,4,14,0.00
2013-9-24,61,53,48,51,48,46,96,84,64,29.87,29.78,3,1,6,0.00
2013-9-25,63,53,46,51,48,45,96,84,64,29.93,29.80,3,2,10,0.00
2013-9-26,62,52,42,50,46,41,96,82,64,30.05,29.95,5,1,7,0.00
2013-9-27,54,52,50,52,50,47,100,91,79,30.03,29.76,6,3,12,0.00
2013-9-28,58,51,51,57,45,-100,100,89,79,29.74,29.22,12,6,17,0.00
2013-9-29,55,53,51,51,50,46,96,88,71,29.42,29.06,14,8,22,0.00
2013-9-30,55,52,50,50,46,42,92,81,66,29.73,29.23,9,7,18,0.00
2013-10-1,54,50,47,49,47,46,96,91,74,30.02,29.96,9,3,15,0.00
2013-10-2,51,48,44,49,47,44,100,96,89,30.11,30.01,8,2,13,0.00
2013-10-3,46,41,38,46,41,38,100,100,96,30.30,30.13,2,1,3,0.00
2013-10-9,56,52,50,45,44,43,82,75,61,29.93,29.88,3,1,5,0.00
2013-10-10,57,50,41,49,45,40,96,85,71,30.00,29.86,3,1,5,0.00
2013-10-11,53,44,35,46,42,35,100,91,77,30.09,30.01,1,0,3,0.00
2013-10-12,58,47,40,49,40,-100,100,85,66,30.15,30.02,2,1,7,0.00
2013-10-13,57,45,35,46,41,34,100,86,59,30.30,30.15,1,0,3,0.00
2013-10-14,58,46,35,48,42,34,100,88,69,30.37,30.31,3,1,6,0.00
2013-10-15,56,47,38,49,44,37,100,90,71,30.33,30.12,2,1,6,0.00
2013-10-16,59,48,40,51,46,40,100,94,74,30.14,30.08,2,1,7,0.00
2013-10-17,56,49,45,49,48,45,100,96,77,30.23,30.14,3,1,7,0.00
2013-10-18,50,46,40,49,45,40,100,99,92,30.21,30.10,3,1,5,0.00
2013-10-19,49,44,42,49,40,-100,100,94,92,30.14,30.10,3,1,9,0.00
2013-10-20,51,48,46,48,46,45,100,94,89,30.15,30.10,3,1,5,0.00
2013-10-21,51,48,47,48,47,47,100,96,89,30.12,30.05,2,1,5,0.00
2013-10-22,49,47,44,49,47,44,100,100,96,30.08,29.98,2,1,3,0.00
2013-10-23,52,45,38,49,44,38,100,98,86,30.00,29.93,2,1,6,0.00
2013-10-24,51,44,37,48,43,37,100,98,86,30.01,29.97,3,1,6,0.00
2013-10-25,52,49,45,49,47,45,100,96,86,30.27,30.10,5,2,7,0.00
2013-10-26,58,49,44,47,40,-100,100,81,66,30.29,30.13,3,1,7,0.00
2013-10-27,60,51,45,49,46,40,100,85,64,30.06,29.87,9,2,15,0.00
2013-10-28,60,54,46,34,26,24,51,35,24,29.98,29.87,15,8,24,0.00
2013-10-29,57,44,34,37,32,28,96,66,43,29.96,29.89,6,1,7,0.00
2013-10-30,53,45,34,47,40,33,96,83,65,30.05,29.96,9,3,16,0.00
2013-10-31,51,49,47,50,48,46,100,96,89,30.19,30.01,7,2,16,0.00
2013-11-1,55,52,50,51,50,49,100,92,80,30.19,29.77,5,2,9,0.00
2013-11-2,50,49,47,49,48,46,96,95,92,29.74,29.38,6,4,13,0.00
2013-11-3,45,36,31,37,34,31,100,92,73,30.04,29.99,1,1,3,0.00
2013-11-4,45,39,29,37,34,28,100,85,65,30.13,30.02,8,2,15,0.00
2013-11-5,44,42,39,42,40,35,100,93,73,30.19,29.98,7,2,10,0.00
2013-11-6,49,45,41,44,41,40,100,87,73,30.27,29.96,12,2,20,0.00
2013-11-7,50,47,44,47,45,41,96,90,79,29.96,29.60,13,5,21,0.00
2013-11-8,55,48,44,47,44,41,100,87,61,30.08,29.86,5,2,10,0.00
2013-11-9,50,44,41,44,37,-100,96,85,73,30.08,30.04,6,1,9,0.00
2013-11-10,50,46,41,43,42,41,100,87,73,30.11,30.07,3,1,6,0.00
2013-11-11,55,50,44,41,38,35,82,63,52,30.11,29.93,7,2,14,0.00
2013-11-12,58,51,46,51,47,40,96,86,70,30.24,29.93,10,4,17,0.00
2013-11-13,56,51,44,50,47,42,96,85,71,30.34,30.25,5,3,13,0.00
2013-11-14,50,46,41,46,43,39,100,91,76,30.23,29.99,3,1,7,0.00
2013-11-15,47,44,41,45,42,40,100,91,79,29.97,29.19,14,6,25,0.00
2013-11-16,47,39,33,40,32,-100,100,84,67,29.60,29.23,7,2,17,0.00
2013-11-17,50,44,33,43,40,33,100,86,73,29.79,29.65,12,6,20,0.00
2013-11-18,48,45,42,45,44,42,100,95,79,29.80,29.47,7,4,13,0.00
2013-11-19,45,41,32,43,30,17,100,66,36,30.00,29.49,9,5,21,0.00
2013-11-20,40,32,27,24,22,19,88,69,44,30.47,30.03,7,2,12,0.00
2013-11-21,41,30,23,26,23,20,88,76,54,30.62,30.47,3,1,7,0.00
2013-11-22,42,32,25,31,26,22,92,79,54,30.61,30.42,2,1,5,0.00
2013-11-23,46,33,27,35,25,-100,96,80,60,30.40,30.16,3,1,5,0.00
2013-11-24,48,37,28,40,34,28,100,89,73,30.15,30.12,2,1,3,0.00
2013-11-25,51,39,31,41,35,30,96,87,63,30.25,30.21,3,1,6,0.00
2013-11-26,49,38,30,40,34,29,100,88,68,30.21,30.06,2,1,7,0.00
2013-12-3,37,34,32,14,13,10,45,40,35,30.29,30.22,15,8,159,0.00
2013-12-4,36,32,29,12,8,6,44,37,27,30.31,30.27,20,6,29,0.00
2013-12-5,33,28,22,13,10,4,62,46,36,30.28,30.15,12,3,23,0.00
2013-12-6,27,24,22,3,-3,-7,37,30,24,30.27,30.19,20,12,30,0.00
2013-12-7,29,21,15,4,-6,-100,61,34,23,30.36,30.28,15,4,25,0.00
2013-12-8,30,22,18,13,9,3,76,57,44,30.50,30.35,6,1,7,0.00
2013-12-9,30,28,23,26,20,15,84,73,62,30.50,30.41,2,0,5,0.00
2013-12-10,34,32,30,32,29,26,96,89,84,30.42,30.37,0,0,6,0.00
2013-12-11,39,34,29,32,30,27,92,84,69,30.37,30.11,0,0,3,0.00
2013-12-12,39,35,29,38,32,27,100,92,78,30.09,29.95,3,0,10,0.00
2013-12-13,44,41,38,43,41,38,100,99,96,30.35,30.06,2,0,3,0.00
2013-12-14,48,43,41,44,37,-100,100,89,82,30.36,30.24,10,3,17,0.00
2013-12-15,51,46,37,46,44,36,100,91,79,30.34,30.21,7,4,16,0.00
2013-12-16,46,39,31,42,38,31,100,94,85,30.41,30.22,3,1,7,0.00
2013-12-17,42,38,30,40,37,30,100,95,88,30.21,30.00,8,2,13,0.00
2013-12-18,45,40,35,40,33,20,96,75,51,30.14,29.97,8,4,13,0.00
2013-12-19,35,33,28,29,20,17,92,61,49,30.30,30.14,7,3,13,0.00
2013-12-20,33,31,30,33,31,29,100,97,92,30.13,29.65,6,2,9,0.00
2013-12-21,37,33,32,35,28,-100,100,94,92,30.10,29.82,2,1,6,0.00
2013-12-22,39,37,35,38,36,34,100,99,96,30.23,30.10,3,0,5,0.00
2013-12-23,52,45,37,47,42,37,100,87,65,30.40,30.00,9,4,21,0.00
2013-12-24,46,39,32,41,37,32,100,92,76,30.54,30.42,3,1,6,0.00
2013-12-25,40,36,30,37,34,29,100,92,82,30.49,30.34,5,1,6,0.00
2013-12-26,46,39,31,41,38,31,100,95,79,30.34,30.15,3,1,6,0.00
2013-12-27,49,40,31,46,38,30,100,94,82,30.25,30.01,9,3,13,0.00
2013-12-28,43,38,37,42,34,-100,100,93,92,30.45,30.27,2,0,5,0.00
2013-12-29,44,40,37,41,39,36,100,94,85,30.41,30.27,3,2,6,0.00
2013-12-30,45,42,39,42,40,38,96,92,85,30.26,30.05,3,1,7,0.00
2013-12-31,45,43,40,45,42,40,100,97,92,30.32,30.10,5,2,7,0.00
2014-1-1,46,42,37,44,41,37,100,97,89,30.35,30.21,2,1,5,0.00
2014-1-2,46,44,42,45,42,38,100,96,82,30.19,29.77,7,3,17,0.00